Regional Weather Roundup
Issued by NWS

Home | Current Version | Previous Version | Text Only | Print | Product List | Glossary On
Versions: 1 2 3 4 5 6 7 8 9 10 11 12 13 14 15 16 17 18 19 20 21 22 23 24 25 26 27 28 29 30 31 32 33 34 35 36 37 38 39 40 41 42 43 44 45 46 47 48 49 50
000
ASUS45 KABQ 302010
RWRNM
NEW MEXICO REGIONAL WEATHER ROUNDUP
NATIONAL WEATHER SERVICE ALBUQUERQUE NM
200 PM MDT SAT MAY 30 2015

NOTE: "FAIR" MEANS FEW OR NO CLOUDS BELOW 12,000 FEET AGL WITH NO
       SIGNIFICANT WEATHER OR OBSTRUCTIONS TO VISION.

      THIS PRODUCT IS RELEASED AS TWO VERSIONS.  ONE VERSION NEAR
      THE TOP OF THE HOUR CONTAINING PRELIMINARY DATA FROM ALBUQUERQUE
      AND OTHER STATIONS.  A FINAL VERSION WITH ADDITIONAL DATA IS
      ISSUED ABOUT 10 MINUTES AFTER THE HOUR.

NMZ501-503-504-510>518-302100-
NORTHWEST PLATEAU/NORTHCENTRAL MOUNTAINS

CITY           SKY/WX    TMP DP  RH WIND       PRES   REMARKS
FARMINGTON     SUNNY     79  27  14 W13       30.22F
LOS ALAMOS     PTSUNNY   65  42  42 S6        30.35F
SANTA FE       SUNNY     71  40  32 S7        30.29F
TAOS           SUNNY     70  37  30 W15G22    30.33F
ANGEL FIRE     MOCLDY    62  36  38 W13       30.38S

$$
NMZ402-403-502-505>509-302100-
WESTCENTRAL MOUNTAINS/SOUTHWEST MOUNTAINS

CITY           SKY/WX    TMP DP  RH WIND       PRES   REMARKS
GALLUP         MOSUNNY   77  27  15 MISG      30.27F
GRANTS         MOSUNNY   76  35  22 SE9       30.29F
SILVER CITY      N/A     82  41  23 S13G18    30.21F

$$
NMZ407-409-411-412-302100-
SOUTHERN DESERTS

CITY           SKY/WX    TMP DP  RH WIND       PRES   REMARKS
LORDSBURG      FAIR      88  39  18 SE12G18   30.12F
DEMING         SUNNY     88  45  22 S10G16    30.14F
LAS CRUCES     SUNNY     84  45  25 NE5       30.16F
HOLLOMAN AFB   SUNNY     85  46  25 VRB5      30.12F
ALAMOGORDO     MOSUNNY   86  45  23 SW10      30.14F
T OR C         SUNNY     84  39  20 E9        30.17F

$$
NMZ519>523-302100-
CENTRAL VALLEYS/CENTRAL HIGHLANDS

CITY           SKY/WX    TMP DP  RH WIND       PRES   REMARKS
ALBUQUERQUE    MOSUNNY   76  42  29 SW5       30.24F
DOUBLE EAGLE   MOSUNNY   73  45  35 S5        30.27F
MORIARTY ARPT  FAIR      70  42  37 S7        30.31F
CLINES CORNERS PTSUNNY   65  43  44 S9        30.33F
BELEN          FAIR      78  40  25 W5        30.23F
SOCORRO        FAIR      80  38  22 NE3       30.19F

$$
NMZ524>526-539-540-302100-
SOUTHCENTRAL MOUNTAINS

CITY           SKY/WX    TMP DP  RH WIND       PRES   REMARKS
RUIDOSO        MOSUNNY   68  46  45 E7        30.34F

$$
NMZ527>531-302100-
NORTHEAST HIGHLANDS/NORTHEAST PLAINS

CITY           SKY/WX    TMP DP  RH WIND       PRES   REMARKS
LAS VEGAS      SUNNY     66  44  45 S13G24    30.31F
RATON          PTSUNNY   67  44  43 S10G17    30.27F
CLAYTON        MOSUNNY   64  50  60 MISG      30.28F

$$
NMZ532>537-302100-
EASTCENTRAL PLAINS

CITY           SKY/WX    TMP DP  RH WIND       PRES   REMARKS
TUCUMCARI      SUNNY     69  51  52 E9        30.24F
CANNON AFB     CLOUDY    67  53  61 VRB6      30.25F
CLOVIS AIRPORT CLOUDY    66  52  59 E12       30.24F

$$
NMZ028-029-538-302100-
SOUTHEAST PLAINS

CITY           SKY/WX    TMP DP  RH WIND       PRES   REMARKS
ROSWELL        SUNNY     75  56  51 N6        30.20F
ARTESIA        MOSUNNY   73  55  53 NE10      30.21F
CARLSBAD       MOSUNNY   79  55  43 NE8G20    30.17F
HOBBS          PTSUNNY   72  55  56 N7        30.23F


$$



USA.gov is the U.S. government's official web portal to all federal, state and local government web resources and services.